Birmingham, AL

9:52 PM CDT on June 22, 2017 (GMT -0500)
Birmingham International

Weather History for KBHM - June, 2014

Change the Weather History Date:

Monday, June 9, 2014

  Actual Average Record
Temperature  
Mean Temperature 77 °F 76 °F  
Max Temperature 87 °F 87 °F 98 °F (1898)
Min Temperature 67 °F 66 °F 52 °F (1930)
Cooling Degree Days 12 12  
Month to date cooling degree days 112 96  
Year to date cooling degree days 405 378  
Since 1 June cooling degree days 112 96  
Growing Degree Days 26 (Base 50)    
Moisture  
Dew Point 67 °F    
Average Humidity 71    
Maximum Humidity 93    
Minimum Humidity 48    
Precipitation  
Precipitation 0.65 in 0.14 in 1.42 in (2013)
Month to date precipitation 1.72 1.28  
Year to date precipitation 24.58 25.25  
Sea Level Pressure  
Sea Level Pressure 29.93 in    
Wind  
Wind Speed 6 mph (SW)    
Max Wind Speed 29 mph    
Max Gust Speed 39 mph    
Visibility 8 miles    
Events Fog , Rain , Thunderstorm    
T = Trace of Precipitation, MM = Missing Value Source: NWS Daily Summary

Daily Weather History Graph

Daily Weather History Graph

Search for Another Location

Airport or City:

Trip Planner

Search our weather history database for the weather conditions in past years. The results will help you decide how hot, cold, wet, or windy it might be!

Date:

Astronomy

Jun. 09, 2014 Rise Set
Actual Time 5:36 AM CDT 7:56 PM CDT
Civil Twilight 5:07 AM CDT 8:25 PM CDT
Nautical Twilight 4:32 AM CDT 9:00 PM CDT
Astronomical Twilight 3:53 AM CDT 9:39 PM CDT
Moon 4:25 PM CDT (6/9) 2:52 AM CDT (6/9)
Length of Visible Light 15h 17m
Length of Day
14h 19m
Waxing Gibbous, 85% of the Moon is Illuminated
Jun 9
Waxing Gibbous
Jun 12
Full
Jun 19
Last Quarter
Jun 27
New
Jul 5
First Quarter

Hourly Weather History & Observations

Time (CDT) Temp. Heat Index Dew Point Humidity Pressure Visibility Wind Dir Wind Speed Gust Speed Precip Events Conditions
12:53 AM 73.9 °F - 69.1 °F 85% 29.90 in 10.0 mi SSE 4.6 mph - N/A   Clear
1:53 AM 73.0 °F - 69.1 °F 87% 29.90 in 10.0 mi Calm Calm - N/A   Partly Cloudy
2:53 AM 72.0 °F - 69.1 °F 91% 29.89 in 10.0 mi Calm Calm - N/A   Mostly Cloudy
3:53 AM 72.0 °F - 69.1 °F 91% 29.90 in 10.0 mi ESE 3.5 mph - N/A   Mostly Cloudy
4:53 AM 73.9 °F - 69.1 °F 85% 29.88 in 10.0 mi SSW 6.9 mph - N/A   Mostly Cloudy
5:11 AM 75.2 °F - 69.8 °F 83% 29.92 in 10.0 mi SW 11.5 mph - N/A Thunderstorm Thunderstorm
5:53 AM 73.0 °F - 69.1 °F 87% 29.88 in 10.0 mi Variable 3.5 mph - 0.01 in Thunderstorm Thunderstorm
6:07 AM 73.4 °F - 69.8 °F 88% 29.92 in 10.0 mi SW 4.6 mph - N/A   Mostly Cloudy
6:53 AM 73.9 °F - 68.0 °F 82% 29.93 in 10.0 mi West 8.1 mph - N/A   Mostly Cloudy
7:53 AM 73.0 °F - 68.0 °F 84% 29.95 in 10.0 mi WNW 5.8 mph - N/A   Mostly Cloudy
8:53 AM 73.9 °F - 66.9 °F 79% 29.94 in 10.0 mi WNW 3.5 mph - N/A   Mostly Cloudy
9:53 AM 75.2 °F - 64.4 °F 69% 29.98 in 10.0 mi WSW 6.9 mph - N/A   Mostly Cloudy
10:53 AM 78.1 °F - 66.0 °F 66% 29.96 in 10.0 mi WSW 9.2 mph - N/A   Mostly Cloudy
11:53 AM 80.1 °F 82.1 °F 66.0 °F 62% 29.97 in 10.0 mi West 12.7 mph 19.6 mph N/A   Mostly Cloudy
1:53 PM 82.0 °F 84.1 °F 66.0 °F 58% 29.90 in 10.0 mi SSW 8.1 mph - N/A   Mostly Cloudy
2:53 PM 84.9 °F 88.8 °F 69.1 °F 59% 29.88 in 10.0 mi SSW 6.9 mph - N/A   Mostly Cloudy
3:53 PM 86.0 °F 87.6 °F 64.9 °F 49% 29.86 in 10.0 mi South 5.8 mph - N/A   Mostly Cloudy
4:53 PM 84.9 °F 86.6 °F 64.9 °F 51% 29.86 in 10.0 mi SW 5.8 mph - N/A   Scattered Clouds
5:53 PM 84.9 °F 87.6 °F 66.9 °F 55% 29.86 in 10.0 mi South 5.8 mph - N/A   Mostly Cloudy
6:53 PM 84.0 °F 87.0 °F 68.0 °F 58% 29.85 in 10.0 mi SSE 5.8 mph - N/A   Scattered Clouds
7:53 PM 81.0 °F 84.1 °F 69.1 °F 67% 29.87 in 10.0 mi Calm Calm - N/A   Scattered Clouds
8:53 PM 80.1 °F 82.9 °F 69.1 °F 69% 29.87 in 10.0 mi East 3.5 mph - N/A   Mostly Cloudy
9:09 PM 80.6 °F 83.9 °F 69.8 °F 70% 29.91 in 10.0 mi Calm Calm - N/A Thunderstorm Thunderstorm
9:53 PM 75.9 °F - 64.9 °F 69% 29.97 in 10.0 mi WNW 28.8 mph 38.0 mph 0.00 in Rain , Thunderstorm Light Thunderstorms and Rain
10:05 PM 71.6 °F - 64.4 °F 78% 30.00 in 2.0 mi WNW 23.0 mph 39.1 mph 0.00 in Rain , Thunderstorm Thunderstorms and Rain
10:07 PM 69.8 °F - 66.2 °F 88% 30.01 in 1.0 mi West 20.7 mph 35.7 mph 0.02 in Rain , Thunderstorm Heavy Thunderstorms and Rain
10:10 PM 69.8 °F - 66.2 °F 88% 30.02 in 0.5 mi WSW 27.6 mph 38.0 mph 0.15 in Fog , Rain , Thunderstorm Heavy Thunderstorms and Rain
10:15 PM 68.0 °F - 66.2 °F 94% 30.01 in 0.5 mi WSW 18.4 mph 38.0 mph 0.37 in Fog , Rain , Thunderstorm Heavy Thunderstorms and Rain
10:26 PM 66.2 °F - 64.4 °F 94% 29.99 in 1.8 mi WSW 12.7 mph 25.3 mph 0.58 in Rain , Thunderstorm Thunderstorms and Rain
10:31 PM 68.0 °F - 64.4 °F 88% 29.99 in 4.0 mi WSW 9.2 mph 23.0 mph 0.61 in Rain , Thunderstorm Thunderstorms and Rain
10:34 PM 68.0 °F - 64.4 °F 88% 29.98 in 4.0 mi SW 8.1 mph - 0.61 in Rain , Thunderstorm Thunderstorms and Rain
10:53 PM 68.0 °F - 64.9 °F 90% 29.96 in 10.0 mi SSW 4.6 mph - 0.63 in Rain , Thunderstorm Light Thunderstorms and Rain
11:53 PM 68.0 °F - 64.9 °F 90% 29.92 in 10.0 mi SE 5.8 mph - 0.01 in Rain , Thunderstorm Light Thunderstorms and Rain